Tracking 29892 objects as of 21-Nov-2024
HD Live streaming from Space Station
objects crossing your sky now

STARLINK-1527

Track STARLINK-1527 now!
10-day predictions
STARLINK-1527 is classified as:


NORAD ID: 46048
Int'l Code: 2020-055X
Perigee: 553.2 km
Apogee: 555.3 km
Inclination: 53.1 °
Period: 95.6 minutes
Semi major axis: 6925 km
RCS: Unknown
Launch date: August 7, 2020
Source: United States (US)
Launch site: AIR FORCE EASTERN TEST RANGE (AFETR)
Your satellite tracking list
Your tracking list is empty




NASA's NSSDC Master Catalog

Two Line Element Set (TLE):
1 46048U 20055X   24325.75118498  .00003959  00000-0  28432-3 0  9991
2 46048  53.0537  84.2049 0001571 106.7748 253.3413 15.06431080237574
Source of the keplerian elements: AFSPC